Year,Month,Day,Hour,Minute,Value (Times are PST for temperature in C)
2012,03,23,00,00,5.70
2012,03,23,00,01,5.70
2012,03,23,00,02,5.70
2012,03,23,00,03,5.70
2012,03,23,00,04,5.70
2012,03,23,00,05,5.70
2012,03,23,00,06,5.70
2012,03,23,00,07,5.70
2012,03,23,00,08,5.70
2012,03,23,00,09,5.70
2012,03,23,00,10,5.70
2012,03,23,00,11,5.70
2012,03,23,00,12,5.70
2012,03,23,00,13,5.70
2012,03,23,00,14,5.70
2012,03,23,00,15,5.70
2012,03,23,00,16,5.70
2012,03,23,00,17,5.70
2012,03,23,00,18,5.70
2012,03,23,00,19,5.70
2012,03,23,00,20,5.70
2012,03,23,00,21,5.70
2012,03,23,00,22,5.70
2012,03,23,00,23,5.70
2012,03,23,00,24,5.70
2012,03,23,00,25,5.70
2012,03,23,00,26,5.70
2012,03,23,00,27,5.70
2012,03,23,00,28,5.60
2012,03,23,00,29,5.60
2012,03,23,00,30,5.60
2012,03,23,00,31,5.60
2012,03,23,00,32,5.60
2012,03,23,00,33,5.60
2012,03,23,00,34,5.50
2012,03,23,00,35,5.50
2012,03,23,00,36,5.50
2012,03,23,00,37,5.50
2012,03,23,00,38,5.50
2012,03,23,00,39,5.50
2012,03,23,00,40,5.40
2012,03,23,00,41,5.40
2012,03,23,00,42,5.40
2012,03,23,00,43,5.40
2012,03,23,00,44,5.40
2012,03,23,00,45,5.40
2012,03,23,00,46,5.40
2012,03,23,00,47,5.40
2012,03,23,00,48,5.30
2012,03,23,00,49,5.30
2012,03,23,00,50,5.30
2012,03,23,00,51,5.30
2012,03,23,00,52,5.30
2012,03,23,00,53,5.20
2012,03,23,00,54,5.20
2012,03,23,00,55,5.20
2012,03,23,00,56,5.20
2012,03,23,00,57,5.20
2012,03,23,00,58,5.20
2012,03,23,00,59,5.20
2012,03,23,01,00,5.30
2012,03,23,01,01,5.30
2012,03,23,01,02,5.30
2012,03,23,01,03,5.30
2012,03,23,01,04,5.30
2012,03,23,01,05,5.30
2012,03,23,01,06,5.30
2012,03,23,01,07,5.30
2012,03,23,01,08,5.30
2012,03,23,01,09,5.30
2012,03,23,01,10,5.30
2012,03,23,01,11,5.30
2012,03,23,01,12,5.30
2012,03,23,01,13,5.30
2012,03,23,01,14,5.30
2012,03,23,01,15,5.30
2012,03,23,01,16,5.30
2012,03,23,01,17,5.30
2012,03,23,01,18,5.30
2012,03,23,01,19,5.30
2012,03,23,01,20,5.30
2012,03,23,01,21,5.30
2012,03,23,01,22,5.30
2012,03,23,01,23,5.30
2012,03,23,01,24,5.30
2012,03,23,01,25,5.30
2012,03,23,01,26,5.30
2012,03,23,01,27,5.30
2012,03,23,01,28,5.30
2012,03,23,01,29,5.30
2012,03,23,01,30,5.30
2012,03,23,01,31,5.30
2012,03,23,01,32,5.30
2012,03,23,01,33,5.30
2012,03,23,01,34,5.30
2012,03,23,01,35,5.30
2012,03,23,01,36,5.30
2012,03,23,01,37,5.20
2012,03,23,01,38,5.20
2012,03,23,01,39,5.20
2012,03,23,01,40,5.20
2012,03,23,01,41,5.20
2012,03,23,01,42,5.20
2012,03,23,01,43,5.20
2012,03,23,01,44,5.20
2012,03,23,01,45,5.20
2012,03,23,01,46,5.30
2012,03,23,01,47,5.30
2012,03,23,01,48,5.30
2012,03,23,01,49,5.30
2012,03,23,01,50,5.30
2012,03,23,01,51,5.30
2012,03,23,01,52,5.30
2012,03,23,01,53,5.30
2012,03,23,01,54,5.30
2012,03,23,01,55,5.30
2012,03,23,01,56,5.30
2012,03,23,01,57,5.30
2012,03,23,01,58,5.40
2012,03,23,01,59,5.40
2012,03,23,02,00,5.40
2012,03,23,02,01,5.40
2012,03,23,02,02,5.40
2012,03,23,02,03,5.40
2012,03,23,02,04,5.40
2012,03,23,02,05,5.40
2012,03,23,02,06,5.40
2012,03,23,02,07,5.40
2012,03,23,02,08,5.30
2012,03,23,02,09,5.30
2012,03,23,02,10,5.30
2012,03,23,02,11,5.30
2012,03,23,02,12,5.30
2012,03,23,02,13,5.30
2012,03,23,02,14,5.30
2012,03,23,02,15,5.30
2012,03,23,02,16,5.30
2012,03,23,02,17,5.30
2012,03,23,02,18,5.30
2012,03,23,02,19,5.30
2012,03,23,02,20,5.30
2012,03,23,02,21,5.30
2012,03,23,02,22,5.30
2012,03,23,02,23,5.30
2012,03,23,02,24,5.30
2012,03,23,02,25,5.20
2012,03,23,02,26,5.20
2012,03,23,02,27,5.10
2012,03,23,02,28,5.10
2012,03,23,02,29,5.10
2012,03,23,02,30,5.00
2012,03,23,02,31,5.00
2012,03,23,02,32,4.90
2012,03,23,02,33,4.90
2012,03,23,02,34,4.90
2012,03,23,02,35,4.90
2012,03,23,02,36,4.90
2012,03,23,02,37,4.90
2012,03,23,02,38,4.80
2012,03,23,02,39,4.80
2012,03,23,02,40,4.80
2012,03,23,02,41,4.80
2012,03,23,02,42,4.80
2012,03,23,02,43,4.80
2012,03,23,02,44,4.80
2012,03,23,02,45,4.80
2012,03,23,02,46,4.80
2012,03,23,02,47,4.70
2012,03,23,02,48,4.70
2012,03,23,02,49,4.70
2012,03,23,02,50,4.70
2012,03,23,02,51,4.70
2012,03,23,02,52,4.70
2012,03,23,02,53,4.70
2012,03,23,02,54,4.70
2012,03,23,02,55,4.70
2012,03,23,02,56,4.70
2012,03,23,02,57,4.70
2012,03,23,02,58,4.70
2012,03,23,02,59,4.70
2012,03,23,03,00,4.70
2012,03,23,03,01,4.70
2012,03,23,03,02,4.70
2012,03,23,03,03,4.70
2012,03,23,03,04,4.70
2012,03,23,03,05,4.70
2012,03,23,03,06,4.70
2012,03,23,03,07,4.70
2012,03,23,03,08,4.70
2012,03,23,03,09,4.70
2012,03,23,03,10,4.70
2012,03,23,03,11,4.70
2012,03,23,03,12,4.70
2012,03,23,03,13,4.70
2012,03,23,03,14,4.70
2012,03,23,03,15,4.70
2012,03,23,03,16,4.80
2012,03,23,03,17,4.80
2012,03,23,03,18,4.80
2012,03,23,03,19,4.80
2012,03,23,03,20,4.70
2012,03,23,03,21,4.70
2012,03,23,03,22,4.70
2012,03,23,03,23,4.70
2012,03,23,03,24,4.70
2012,03,23,03,25,4.70
2012,03,23,03,26,4.60
2012,03,23,03,27,4.60
2012,03,23,03,28,4.60
2012,03,23,03,29,4.60
2012,03,23,03,30,4.60
2012,03,23,03,31,4.60
2012,03,23,03,32,4.60
2012,03,23,03,33,4.60
2012,03,23,03,34,4.60
2012,03,23,03,35,4.60
2012,03,23,03,36,4.60
2012,03,23,03,37,4.60
2012,03,23,03,38,4.60
2012,03,23,03,39,4.60
2012,03,23,03,40,4.60
2012,03,23,03,41,4.60
2012,03,23,03,42,4.60
2012,03,23,03,43,4.50
2012,03,23,03,44,4.50
2012,03,23,03,45,4.50
2012,03,23,03,46,4.40
2012,03,23,03,47,4.40
2012,03,23,03,48,4.40
2012,03,23,03,49,4.40
2012,03,23,03,50,4.30
2012,03,23,03,51,4.20
2012,03,23,03,52,4.20
2012,03,23,03,53,4.10
2012,03,23,03,54,4.00
2012,03,23,03,55,4.00
2012,03,23,03,56,4.00
2012,03,23,03,57,3.90
2012,03,23,03,58,3.90
2012,03,23,03,59,3.90
2012,03,23,04,00,3.90
2012,03,23,04,01,3.80
2012,03,23,04,02,3.80
2012,03,23,04,03,3.80
2012,03,23,04,04,3.80
2012,03,23,04,05,3.80
2012,03,23,04,06,3.70
2012,03,23,04,07,3.70
2012,03,23,04,08,3.70
2012,03,23,04,09,3.70
2012,03,23,04,10,3.70
2012,03,23,04,11,3.70
2012,03,23,04,12,3.60
2012,03,23,04,13,3.60
2012,03,23,04,14,3.60
2012,03,23,04,15,3.60
2012,03,23,04,16,3.60
2012,03,23,04,17,3.50
2012,03,23,04,18,3.50
2012,03,23,04,19,3.50
2012,03,23,04,20,3.50
2012,03,23,04,21,3.50
2012,03,23,04,22,3.50
2012,03,23,04,23,3.50
2012,03,23,04,24,3.50
2012,03,23,04,25,3.50
2012,03,23,04,26,3.50
2012,03,23,04,27,3.60
2012,03,23,04,28,3.60
2012,03,23,04,29,3.60
2012,03,23,04,30,3.60
2012,03,23,04,31,3.60
2012,03,23,04,32,3.70
2012,03,23,04,33,3.70
2012,03,23,04,34,3.70
2012,03,23,04,35,3.70
2012,03,23,04,36,3.60
2012,03,23,04,37,3.60
2012,03,23,04,38,3.60
2012,03,23,04,39,3.60
2012,03,23,04,40,3.60
2012,03,23,04,41,3.50
2012,03,23,04,42,3.50
2012,03,23,04,43,3.40
2012,03,23,04,44,3.40
2012,03,23,04,45,3.40
2012,03,23,04,46,3.40
2012,03,23,04,47,3.40
2012,03,23,04,48,3.40
2012,03,23,04,49,3.40
2012,03,23,04,50,3.40
2012,03,23,04,51,3.30
2012,03,23,04,52,3.30
2012,03,23,04,53,3.30
2012,03,23,04,54,3.30
2012,03,23,04,55,3.20
2012,03,23,04,56,3.20
2012,03,23,04,57,3.20
2012,03,23,04,58,3.10
2012,03,23,04,59,3.10
2012,03,23,05,00,3.10
2012,03,23,05,01,3.10
2012,03,23,05,02,3.10
2012,03,23,05,03,3.10
2012,03,23,05,04,3.10
2012,03,23,05,05,3.10
2012,03,23,05,06,3.10
2012,03,23,05,07,3.10
2012,03,23,05,08,3.10
2012,03,23,05,09,3.20
2012,03,23,05,10,3.20
2012,03,23,05,11,3.20
2012,03,23,05,12,3.20
2012,03,23,05,13,3.30
2012,03,23,05,14,3.30
2012,03,23,05,15,3.30
2012,03,23,05,16,3.30
2012,03,23,05,17,3.30
2012,03,23,05,18,3.30
2012,03,23,05,19,3.30
2012,03,23,05,20,3.30
2012,03,23,05,21,3.30
2012,03,23,05,22,3.30
2012,03,23,05,23,3.40
2012,03,23,05,24,3.40
2012,03,23,05,25,3.40
2012,03,23,05,26,3.40
2012,03,23,05,27,3.40
2012,03,23,05,28,3.40
2012,03,23,05,29,3.40
2012,03,23,05,30,3.40
2012,03,23,05,31,3.40
2012,03,23,05,32,3.40
2012,03,23,05,33,3.40
2012,03,23,05,34,3.40
2012,03,23,05,35,3.30
2012,03,23,05,36,3.30
2012,03,23,05,37,3.30
2012,03,23,05,38,3.30
2012,03,23,05,39,3.30
2012,03,23,05,40,3.30
2012,03,23,05,41,3.30
2012,03,23,05,42,3.30
2012,03,23,05,43,3.30
2012,03,23,05,44,3.30
2012,03,23,05,45,3.30
2012,03,23,05,46,3.30
2012,03,23,05,47,3.30
2012,03,23,05,48,3.30
2012,03,23,05,49,3.30
2012,03,23,05,50,3.20
2012,03,23,05,51,3.20
2012,03,23,05,52,3.20
2012,03,23,05,53,3.20
2012,03,23,05,54,3.20
2012,03,23,05,55,3.20
2012,03,23,05,56,3.20
2012,03,23,05,57,3.20
2012,03,23,05,58,3.30
2012,03,23,05,59,3.30
2012,03,23,06,00,3.30
2012,03,23,06,01,3.30
2012,03,23,06,02,3.30
2012,03,23,06,03,3.30
2012,03,23,06,04,3.20
2012,03,23,06,05,3.20
2012,03,23,06,06,3.20
2012,03,23,06,07,3.20
2012,03,23,06,08,3.20
2012,03,23,06,09,3.20
2012,03,23,06,10,3.20
2012,03,23,06,11,3.20
2012,03,23,06,12,3.20
2012,03,23,06,13,3.20
2012,03,23,06,14,3.20
2012,03,23,06,15,3.20
2012,03,23,06,16,3.20
2012,03,23,06,17,3.20
2012,03,23,06,18,3.20
2012,03,23,06,19,3.20
2012,03,23,06,20,3.20
2012,03,23,06,21,3.20
2012,03,23,06,22,3.20
2012,03,23,06,23,3.20
2012,03,23,06,24,3.20
2012,03,23,06,25,3.20
2012,03,23,06,26,3.20
2012,03,23,06,27,3.20
2012,03,23,06,28,3.20
2012,03,23,06,29,3.20
2012,03,23,06,30,3.20
2012,03,23,06,31,3.10
2012,03,23,06,32,3.10
2012,03,23,06,33,3.10
2012,03,23,06,34,3.10
2012,03,23,06,35,3.10
2012,03,23,06,36,3.10
2012,03,23,06,37,3.10
2012,03,23,06,38,3.10
2012,03,23,06,39,3.10
2012,03,23,06,40,3.10
2012,03,23,06,41,3.10
2012,03,23,06,42,3.10
2012,03,23,06,43,3.10
2012,03,23,06,44,3.10
2012,03,23,06,45,3.10
2012,03,23,06,46,3.10
2012,03,23,06,47,3.00
2012,03,23,06,48,3.00
2012,03,23,06,49,3.00
2012,03,23,06,50,3.00
2012,03,23,06,51,3.00
2012,03,23,06,52,3.00
2012,03,23,06,53,3.00
2012,03,23,06,54,2.90
2012,03,23,06,55,2.90
2012,03,23,06,56,2.90
2012,03,23,06,57,2.90
2012,03,23,06,58,2.90
2012,03,23,06,59,2.90
2012,03,23,07,00,2.90
2012,03,23,07,01,2.80
2012,03,23,07,02,2.80
2012,03,23,07,03,2.80
2012,03,23,07,04,2.80
2012,03,23,07,05,2.80
2012,03,23,07,06,2.70
2012,03,23,07,07,2.70
2012,03,23,07,08,2.70
2012,03,23,07,09,2.70
2012,03,23,07,10,2.60
2012,03,23,07,11,2.60
2012,03,23,07,12,2.60
2012,03,23,07,13,2.60
2012,03,23,07,14,2.50
2012,03,23,07,15,2.50
2012,03,23,07,16,2.50
2012,03,23,07,17,2.50
2012,03,23,07,18,2.50
2012,03,23,07,19,2.50
2012,03,23,07,20,2.50
2012,03,23,07,21,2.50
2012,03,23,07,22,2.50
2012,03,23,07,23,2.60
2012,03,23,07,24,2.60
2012,03,23,07,25,2.70
2012,03,23,07,26,2.70
2012,03,23,07,27,2.70
2012,03,23,07,28,2.70
2012,03,23,07,29,2.80
2012,03,23,07,30,2.80
2012,03,23,07,31,2.80
2012,03,23,07,32,2.80
2012,03,23,07,33,2.70
2012,03,23,07,34,2.80
2012,03,23,07,35,2.80
2012,03,23,07,36,2.80
2012,03,23,07,37,2.90
2012,03,23,07,38,2.90
2012,03,23,07,39,3.00
2012,03,23,07,40,3.00
2012,03,23,07,41,3.10
2012,03,23,07,42,3.10
2012,03,23,07,43,3.10
2012,03,23,07,44,3.20
2012,03,23,07,45,3.20
2012,03,23,07,46,3.20
2012,03,23,07,47,3.20
2012,03,23,07,48,3.20
2012,03,23,07,49,3.10
2012,03,23,07,50,3.20
2012,03,23,07,51,3.20
2012,03,23,07,52,3.20
2012,03,23,07,53,3.20
2012,03,23,07,54,3.20
2012,03,23,07,55,3.20
2012,03,23,07,56,3.20
2012,03,23,07,57,3.20
2012,03,23,07,58,3.20
2012,03,23,07,59,3.20
2012,03,23,08,00,3.20
2012,03,23,08,01,3.20
2012,03,23,08,02,3.20
2012,03,23,08,03,3.20
2012,03,23,08,04,3.30
2012,03,23,08,05,3.30
2012,03,23,08,06,3.30
2012,03,23,08,07,3.30
2012,03,23,08,08,3.30
2012,03,23,08,09,3.30
2012,03,23,08,10,3.30
2012,03,23,08,11,3.40
2012,03,23,08,12,3.40
2012,03,23,08,13,3.40
2012,03,23,08,14,3.40
2012,03,23,08,15,3.50
2012,03,23,08,16,3.50
2012,03,23,08,17,3.50
2012,03,23,08,18,3.60
2012,03,23,08,19,3.60
2012,03,23,08,20,3.60
2012,03,23,08,21,3.60
2012,03,23,08,22,3.60
2012,03,23,08,23,3.70
2012,03,23,08,24,3.70
2012,03,23,08,25,3.70
2012,03,23,08,26,3.70
2012,03,23,08,27,3.70
2012,03,23,08,28,3.70
2012,03,23,08,29,3.70
2012,03,23,08,30,3.70
2012,03,23,08,31,3.80
2012,03,23,08,32,3.80
2012,03,23,08,33,3.80
2012,03,23,08,34,3.90
2012,03,23,08,35,3.90
2012,03,23,08,36,3.90
2012,03,23,08,37,4.00
2012,03,23,08,38,4.00
2012,03,23,08,39,4.10
2012,03,23,08,40,4.10
2012,03,23,08,41,4.10
2012,03,23,08,42,4.10
2012,03,23,08,43,4.20
2012,03,23,08,44,4.20
2012,03,23,08,45,4.20
2012,03,23,08,46,4.20
2012,03,23,08,47,4.30
2012,03,23,08,48,4.30
2012,03,23,08,49,4.30
2012,03,23,08,50,4.40
2012,03,23,08,51,4.40
2012,03,23,08,52,4.40
2012,03,23,08,53,4.40
2012,03,23,08,54,4.40
2012,03,23,08,55,4.40
2012,03,23,08,56,4.40
2012,03,23,08,57,4.40
2012,03,23,08,58,4.40
2012,03,23,08,59,4.40
2012,03,23,09,00,4.30
2012,03,23,09,01,4.30
2012,03,23,09,02,4.30
2012,03,23,09,03,4.30
2012,03,23,09,04,4.30
2012,03,23,09,05,4.30
2012,03,23,09,06,4.30
2012,03,23,09,07,4.30
2012,03,23,09,08,4.30
2012,03,23,09,09,4.30
2012,03,23,09,10,4.30
2012,03,23,09,11,4.30
2012,03,23,09,12,4.30
2012,03,23,09,13,4.30
2012,03,23,09,14,4.30
2012,03,23,09,15,4.30
2012,03,23,09,16,4.30
2012,03,23,09,17,4.30
2012,03,23,09,18,4.30
2012,03,23,09,19,4.30
2012,03,23,09,20,4.30
2012,03,23,09,21,4.30
2012,03,23,09,22,4.30
2012,03,23,09,23,4.30
2012,03,23,09,24,4.30
2012,03,23,09,25,4.30
2012,03,23,09,26,4.30
2012,03,23,09,27,4.30
2012,03,23,09,28,4.30
2012,03,23,09,29,4.40
2012,03,23,09,30,4.40
2012,03,23,09,31,4.40
2012,03,23,09,32,4.40
2012,03,23,09,33,4.40
2012,03,23,09,34,4.50
2012,03,23,09,35,4.50
2012,03,23,09,36,4.50
2012,03,23,09,37,4.50
2012,03,23,09,38,4.60
2012,03,23,09,39,4.60
2012,03,23,09,40,4.60
2012,03,23,09,41,4.60
2012,03,23,09,42,4.70
2012,03,23,09,43,4.70
2012,03,23,09,44,4.70
2012,03,23,09,45,4.70
2012,03,23,09,46,4.80
2012,03,23,09,47,4.80
2012,03,23,09,48,4.90
2012,03,23,09,49,4.90
2012,03,23,09,50,5.00
2012,03,23,09,51,5.00
2012,03,23,09,52,5.10
2012,03,23,09,53,5.10
2012,03,23,09,54,5.10
2012,03,23,09,55,5.20
2012,03,23,09,56,5.20
2012,03,23,09,57,5.20
2012,03,23,09,58,5.20
2012,03,23,09,59,5.30
2012,03,23,10,00,5.30
2012,03,23,10,01,5.30
2012,03,23,10,02,5.30
2012,03,23,10,03,5.30
2012,03,23,10,04,5.30
2012,03,23,10,05,5.30
2012,03,23,10,06,5.30
2012,03,23,10,07,5.30
2012,03,23,10,08,5.30
2012,03,23,10,09,5.40
2012,03,23,10,10,5.40
2012,03,23,10,11,5.40
2012,03,23,10,12,5.40
2012,03,23,10,13,5.40
2012,03,23,10,14,5.40
2012,03,23,10,15,5.50
2012,03,23,10,16,5.50
2012,03,23,10,17,5.50
2012,03,23,10,18,5.50
2012,03,23,10,19,5.50
2012,03,23,10,20,5.60
2012,03,23,10,21,5.60
2012,03,23,10,22,5.60
2012,03,23,10,23,5.60
2012,03,23,10,24,5.60
2012,03,23,10,25,5.60
2012,03,23,10,26,5.60
2012,03,23,10,27,5.60
2012,03,23,10,28,5.60
2012,03,23,10,29,5.60
2012,03,23,10,30,5.70
2012,03,23,10,31,5.70
2012,03,23,10,32,5.70
2012,03,23,10,33,5.70
2012,03,23,10,34,5.70
2012,03,23,10,35,5.70
2012,03,23,10,36,5.70
2012,03,23,10,37,5.70
2012,03,23,10,38,5.70
2012,03,23,10,39,5.70
2012,03,23,10,40,5.70
2012,03,23,10,41,5.70
2012,03,23,10,42,5.70
2012,03,23,10,43,5.70
2012,03,23,10,44,5.70
2012,03,23,10,45,5.80
2012,03,23,10,46,5.70
2012,03,23,10,47,5.70
2012,03,23,10,48,5.70
2012,03,23,10,49,5.70
2012,03,23,10,50,5.70
2012,03,23,10,51,5.80
2012,03,23,10,52,5.80
2012,03,23,10,53,5.80
2012,03,23,10,54,5.80
2012,03,23,10,55,5.80
2012,03,23,10,56,5.80
2012,03,23,10,57,5.90
2012,03,23,10,58,5.90
2012,03,23,10,59,5.90
2012,03,23,11,00,5.90
2012,03,23,11,01,5.90
2012,03,23,11,02,5.90
2012,03,23,11,03,5.90
2012,03,23,11,04,6.00
2012,03,23,11,05,6.00
2012,03,23,11,06,6.00
2012,03,23,11,07,6.10
2012,03,23,11,08,6.10
2012,03,23,11,09,6.10
2012,03,23,11,10,6.10
2012,03,23,11,11,6.10
2012,03,23,11,12,6.10
2012,03,23,11,13,6.00
2012,03,23,11,14,6.00
2012,03,23,11,15,6.10
2012,03,23,11,16,6.10
2012,03,23,11,17,6.10
2012,03,23,11,18,6.20
2012,03,23,11,19,6.20
2012,03,23,11,20,6.30
2012,03,23,11,21,6.40
2012,03,23,11,22,6.50
2012,03,23,11,23,6.60
2012,03,23,11,24,6.60
2012,03,23,11,25,6.70
2012,03,23,11,26,6.70
2012,03,23,11,27,6.80
2012,03,23,11,28,6.80
2012,03,23,11,29,6.90
2012,03,23,11,30,6.90
2012,03,23,11,31,6.90
2012,03,23,11,32,6.90
2012,03,23,11,33,7.00
2012,03,23,11,34,7.00
2012,03,23,11,35,7.00
2012,03,23,11,36,7.00
2012,03,23,11,37,7.10
2012,03,23,11,38,7.10
2012,03,23,11,39,7.10
2012,03,23,11,40,7.10
2012,03,23,11,41,7.10
2012,03,23,11,42,7.20
2012,03,23,11,43,7.20
2012,03,23,11,44,7.20
2012,03,23,11,45,7.20
2012,03,23,11,46,7.20
2012,03,23,11,47,7.20
2012,03,23,11,48,7.20
2012,03,23,11,49,7.20
2012,03,23,11,50,7.20
2012,03,23,11,51,7.20
2012,03,23,11,52,7.20
2012,03,23,11,53,7.30
2012,03,23,11,54,7.30
2012,03,23,11,55,7.20
2012,03,23,11,56,7.20
2012,03,23,11,57,7.20
2012,03,23,11,58,7.30
2012,03,23,11,59,7.30
2012,03,23,12,00,7.40
2012,03,23,12,01,7.40
2012,03,23,12,02,7.40
2012,03,23,12,03,7.40
2012,03,23,12,04,7.50
2012,03,23,12,05,7.50
2012,03,23,12,06,7.50
2012,03,23,12,07,7.50
2012,03,23,12,08,7.50
2012,03,23,12,09,7.40
2012,03,23,12,10,7.40
2012,03,23,12,11,7.40
2012,03,23,12,12,7.40
2012,03,23,12,13,7.40
2012,03,23,12,14,7.40
2012,03,23,12,15,7.40
2012,03,23,12,16,7.40
2012,03,23,12,17,7.50
2012,03,23,12,18,7.60
2012,03,23,12,19,7.60
2012,03,23,12,20,7.60
2012,03,23,12,21,7.60
2012,03,23,12,22,7.60
2012,03,23,12,23,7.60
2012,03,23,12,24,7.70
2012,03,23,12,25,7.70
2012,03,23,12,26,7.70
2012,03,23,12,27,7.70
2012,03,23,12,28,7.80
2012,03,23,12,29,7.80
2012,03,23,12,30,7.80
2012,03,23,12,31,7.90
2012,03,23,12,32,8.00
2012,03,23,12,33,8.00
2012,03,23,12,34,8.10
2012,03,23,12,35,8.10
2012,03,23,12,36,8.20
2012,03,23,12,37,8.20
2012,03,23,12,38,8.30
2012,03,23,12,39,8.30
2012,03,23,12,40,8.40
2012,03,23,12,41,8.40
2012,03,23,12,42,8.50
2012,03,23,12,43,8.60
2012,03,23,12,44,8.70
2012,03,23,12,45,8.60
2012,03,23,12,46,8.60
2012,03,23,12,47,8.50
2012,03,23,12,48,8.50
2012,03,23,12,49,8.40
2012,03,23,12,50,8.40
2012,03,23,12,51,8.40
2012,03,23,12,52,8.40
2012,03,23,12,53,8.30
2012,03,23,12,54,8.30
2012,03,23,12,55,8.30
2012,03,23,12,56,8.30
2012,03,23,12,57,8.30
2012,03,23,12,58,8.30
2012,03,23,12,59,8.20
2012,03,23,13,00,8.10
2012,03,23,13,01,8.10
2012,03,23,13,02,8.10
2012,03,23,13,03,8.20
2012,03,23,13,04,8.20
2012,03,23,13,05,8.30
2012,03,23,13,06,8.30
2012,03,23,13,07,8.40
2012,03,23,13,08,8.40
2012,03,23,13,09,8.50
2012,03,23,13,10,8.60
2012,03,23,13,11,8.60
2012,03,23,13,12,8.60
2012,03,23,13,13,8.60
2012,03,23,13,14,8.60
2012,03,23,13,15,8.60
2012,03,23,13,16,8.50
2012,03,23,13,17,8.50
2012,03,23,13,18,8.60
2012,03,23,13,19,8.60
2012,03,23,13,20,8.60
2012,03,23,13,21,8.60
2012,03,23,13,22,8.70
2012,03,23,13,23,8.70
2012,03,23,13,24,8.70
2012,03,23,13,25,8.70
2012,03,23,13,26,8.70
2012,03,23,13,27,8.70
2012,03,23,13,28,8.70
2012,03,23,13,29,8.70
2012,03,23,13,30,8.70
2012,03,23,13,31,8.70
2012,03,23,13,32,8.70
2012,03,23,13,33,8.70
2012,03,23,13,34,8.70
2012,03,23,13,35,8.80
2012,03,23,13,36,8.80
2012,03,23,13,37,8.80
2012,03,23,13,38,8.80
2012,03,23,13,39,8.90
2012,03,23,13,40,8.90
2012,03,23,13,41,8.90
2012,03,23,13,42,8.90
2012,03,23,13,43,8.90
2012,03,23,13,44,8.90
2012,03,23,13,45,8.90
2012,03,23,13,46,8.90
2012,03,23,13,47,9.00
2012,03,23,13,48,9.00
2012,03,23,13,49,8.90
2012,03,23,13,50,9.00
2012,03,23,13,51,9.00
2012,03,23,13,52,9.00
2012,03,23,13,53,9.00
2012,03,23,13,54,9.00
2012,03,23,13,55,9.00
2012,03,23,13,56,9.00
2012,03,23,13,57,9.00
2012,03,23,13,58,9.10
2012,03,23,13,59,9.10
2012,03,23,14,00,9.10
2012,03,23,14,01,9.10
2012,03,23,14,02,9.10
2012,03,23,14,03,9.20
2012,03,23,14,04,9.20
2012,03,23,14,05,9.20
2012,03,23,14,06,9.30
2012,03,23,14,07,9.40
2012,03,23,14,08,9.50
2012,03,23,14,09,9.60
2012,03,23,14,10,9.70
2012,03,23,14,11,9.70
2012,03,23,14,12,9.70
2012,03,23,14,13,9.70
2012,03,23,14,14,9.70
2012,03,23,14,15,9.70
2012,03,23,14,16,9.70
2012,03,23,14,17,9.70
2012,03,23,14,18,9.70
2012,03,23,14,19,9.80
2012,03,23,14,20,9.90
2012,03,23,14,21,9.90
2012,03,23,14,22,9.80
2012,03,23,14,23,9.70
2012,03,23,14,24,9.70
2012,03,23,14,25,9.70
2012,03,23,14,26,9.70
2012,03,23,14,27,9.70
2012,03,23,14,28,9.80
2012,03,23,14,29,9.80
2012,03,23,14,30,9.80
2012,03,23,14,31,9.70
2012,03,23,14,32,9.70
2012,03,23,14,33,9.80
2012,03,23,14,34,9.80
2012,03,23,14,35,9.90
2012,03,23,14,36,10.00
2012,03,23,14,37,10.00
2012,03,23,14,38,10.00
2012,03,23,14,39,10.10
2012,03,23,14,40,10.20
2012,03,23,14,41,10.20
2012,03,23,14,42,10.20
2012,03,23,14,43,10.10
2012,03,23,14,44,10.10
2012,03,23,14,45,10.10
2012,03,23,14,46,10.10
2012,03,23,14,47,10.10
2012,03,23,14,48,10.10
2012,03,23,14,49,10.10
2012,03,23,14,50,10.10
2012,03,23,14,51,10.10
2012,03,23,14,52,10.10
2012,03,23,14,53,10.10
2012,03,23,14,54,10.20
2012,03,23,14,55,10.20
2012,03,23,14,56,10.30
2012,03,23,14,57,10.30
2012,03,23,14,58,10.30
2012,03,23,14,59,10.40
2012,03,23,15,00,10.40
2012,03,23,15,01,10.40
2012,03,23,15,02,10.40
2012,03,23,15,03,10.40
2012,03,23,15,04,10.40
2012,03,23,15,05,10.40
2012,03,23,15,06,10.40
2012,03,23,15,07,10.50
2012,03,23,15,08,10.50
2012,03,23,15,09,10.50
2012,03,23,15,10,10.40
2012,03,23,15,11,10.40
2012,03,23,15,12,10.40
2012,03,23,15,13,10.40
2012,03,23,15,14,10.50
2012,03,23,15,15,10.50
2012,03,23,15,16,10.50
2012,03,23,15,17,10.50
2012,03,23,15,18,10.40
2012,03,23,15,19,10.50
2012,03,23,15,20,10.50
2012,03,23,15,21,10.60
2012,03,23,15,22,10.60
2012,03,23,15,23,10.60
2012,03,23,15,24,10.60
2012,03,23,15,25,10.70
2012,03,23,15,26,10.70
2012,03,23,15,27,10.70
2012,03,23,15,28,10.60
2012,03,23,15,29,10.60
2012,03,23,15,30,10.50
2012,03,23,15,31,10.50
2012,03,23,15,32,10.50
2012,03,23,15,33,10.40
2012,03,23,15,34,10.30
2012,03,23,15,35,10.30
2012,03,23,15,36,10.30
2012,03,23,15,37,10.30
2012,03,23,15,38,10.20
2012,03,23,15,39,10.20
2012,03,23,15,40,10.20
2012,03,23,15,41,10.30
2012,03,23,15,42,10.30
2012,03,23,15,43,10.40
2012,03,23,15,44,10.40
2012,03,23,15,45,10.40
2012,03,23,15,46,10.40
2012,03,23,15,47,10.50
2012,03,23,15,48,10.60
2012,03,23,15,49,10.60
2012,03,23,15,50,10.70
2012,03,23,15,51,10.80
2012,03,23,15,52,10.80
2012,03,23,15,53,10.80
2012,03,23,15,54,10.80
2012,03,23,15,55,10.70
2012,03,23,15,56,10.70
2012,03,23,15,57,10.60
2012,03,23,15,58,10.60
2012,03,23,15,59,10.60
2012,03,23,16,00,10.60
2012,03,23,16,01,10.60
2012,03,23,16,02,10.60
2012,03,23,16,03,10.60
2012,03,23,16,04,10.60
2012,03,23,16,05,10.70
2012,03,23,16,06,10.70
2012,03,23,16,07,10.70
2012,03,23,16,08,10.70
2012,03,23,16,09,10.70
2012,03,23,16,10,10.70
2012,03,23,16,11,10.60
2012,03,23,16,12,10.50
2012,03,23,16,13,10.40
2012,03,23,16,14,10.40
2012,03,23,16,15,10.40
2012,03,23,16,16,10.40
2012,03,23,16,17,10.50
2012,03,23,16,18,10.50
2012,03,23,16,19,10.40
2012,03,23,16,20,10.40
2012,03,23,16,21,10.40
2012,03,23,16,22,10.50
2012,03,23,16,23,10.60
2012,03,23,16,24,10.60
2012,03,23,16,25,10.70
2012,03,23,16,26,10.70
2012,03,23,16,27,10.60
2012,03,23,16,28,10.60
2012,03,23,16,29,10.60
2012,03,23,16,30,10.60
2012,03,23,16,31,10.60
2012,03,23,16,32,10.60
2012,03,23,16,33,10.60
2012,03,23,16,34,10.60
2012,03,23,16,35,10.60
2012,03,23,16,36,10.60
2012,03,23,16,37,10.60
2012,03,23,16,38,10.60
2012,03,23,16,39,10.60
2012,03,23,16,40,10.60
2012,03,23,16,41,10.60
2012,03,23,16,42,10.50
2012,03,23,16,43,10.50
2012,03,23,16,44,10.40
2012,03,23,16,45,10.40
2012,03,23,16,46,10.40
2012,03,23,16,47,10.40
2012,03,23,16,48,10.40
2012,03,23,16,49,10.40
2012,03,23,16,50,10.50
2012,03,23,16,51,10.50
2012,03,23,16,52,10.60
2012,03,23,16,53,10.60
2012,03,23,16,54,10.60
2012,03,23,16,55,10.70
2012,03,23,16,56,10.70
2012,03,23,16,57,10.60
2012,03,23,16,58,10.60
2012,03,23,16,59,10.60
2012,03,23,17,00,10.50
2012,03,23,17,01,10.50
2012,03,23,17,02,10.40
2012,03,23,17,03,10.40
2012,03,23,17,04,10.40
2012,03,23,17,05,10.40
2012,03,23,17,06,10.50
2012,03,23,17,07,10.40
2012,03,23,17,08,10.50
2012,03,23,17,09,10.50
2012,03,23,17,10,10.50
2012,03,23,17,11,10.50
2012,03,23,17,12,10.50
2012,03,23,17,13,10.50
2012,03,23,17,14,10.60
2012,03,23,17,15,10.60
2012,03,23,17,16,10.70
2012,03,23,17,17,10.60
2012,03,23,17,18,10.60
2012,03,23,17,19,10.60
2012,03,23,17,20,10.60
2012,03,23,17,21,10.50
2012,03,23,17,22,10.50
2012,03,23,17,23,10.40
2012,03,23,17,24,10.40
2012,03,23,17,25,10.40
2012,03,23,17,26,10.50
2012,03,23,17,27,10.50
2012,03,23,17,28,10.50
2012,03,23,17,29,10.50
2012,03,23,17,30,10.50
2012,03,23,17,31,10.50
2012,03,23,17,32,10.50
2012,03,23,17,33,10.40
2012,03,23,17,34,10.40
2012,03,23,17,35,10.30
2012,03,23,17,36,10.30
2012,03,23,17,37,10.30
2012,03,23,17,38,10.20
2012,03,23,17,39,10.20
2012,03,23,17,40,10.20
2012,03,23,17,41,10.20
2012,03,23,17,42,10.20
2012,03,23,17,43,10.20
2012,03,23,17,44,10.20
2012,03,23,17,45,10.20
2012,03,23,17,46,10.20
2012,03,23,17,47,10.20
2012,03,23,17,48,10.20
2012,03,23,17,49,10.20
2012,03,23,17,50,10.20
2012,03,23,17,51,10.20
2012,03,23,17,52,10.20
2012,03,23,17,53,10.20
2012,03,23,17,54,10.20
2012,03,23,17,55,10.20
2012,03,23,17,56,10.10
2012,03,23,17,57,10.10